CAPE
702 643 468 416 620 542 347 233 227 74 2 0 0 0 0 4 417 208 128 68 0 0 0 61 0 0 0 0 0 0 0 0 1 0 0 0 0 0
206 441 557 501 490 542 603 317 97 78 44 0 0 0 0 32 458 98 38 0 0 0 0 0 21 2 7 2 0 0 0 0 0 0 0 0 0 0
376 192 352 459 430 455 502 341 293 102 145 29 95 0 0 199 66 0 0 0 0 0 0 0 0 0 0 0 0 0 0 0 0 0 0 0 0 0
639 608 439 598 578 478 441 305 317 252 203 179 104 46 0 72 1 0 0 0 0 0 0 0 0 0 0 0 0 0 0 0 0 0 0 0 0 0
567 512 488 339 292 479 481 297 294 302 182 123 104 163 23 8 0 0 0 0 0 0 0 0 0 0 0 0 0 0 0 0 0 1 0 2 4 5
518 477 584 424 224 274 442 286 185 130 99 86 72 100 150 117 43 0 0 0 0 0 0 0 0 0 0 0 1 0 0 0 0 0 0 1 2 3
451 525 502 288 271 315 377 253 160 104 90 104 71 77 97 94 101 29 0 0 0 0 0 0 0 0 0 0 1 1 0 0 0 1 1 1 1 0
274 448 393 199 121 65 16 16 19 21 11 27 65 36 9 43 76 56 0 0 0 0 0 0 0 0 0 0 0 0 0 0 0 0 0 0 0 0
119 217 284 123 122 91 10 0 0 0 0 56 101 16 7 0 0 57 14 0 0 0 0 0 0 0 0 0 0 0 0 0 0 0 0 0 0 0
0 1 49 31 4 21 0 0 0 0 0 0 0 0 0 0 0 1 20 0 0 2 0 0 0 0 0 0 0 0 0 0 0 0 0 0 0 0
0 0 0 0 0 0 0 0 0 0 0 0 0 0 0 0 0 0 0 0 0 1 0 0 0 0 0 0 0 0 0 0 0 0 0 0 0 0
0 0 0 0 0 0 0 0 0 0 0 0 0 0 0 0 0 0 0 1 0 0 0 1 2 0 0 0 0 0 0 0 0 0 0 0 0 0
0 0 0 0 0 0 0 0 0 0 0 0 0 0 0 0 0 0 0 0 0 0 1 0 1 0 1 2 2 1 0 0 0 0 0 0 0 0
0 0 1 0 0 0 0 0 0 0 0 0 0 0 0 0 0 0 0 0 0 0 0 0 0 0 0 2 2 2 1 1 0 0 0 0 0 0
0 0 0 0 0 0 0 0 0 0 0 0 0 0 0 0 0 0 0 0 0 0 0 0 0 0 0 1 2 1 0 0 0 0 0 0 0 0
0 0 0 0 0 0 0 0 0 0 0 0 0 0 0 0 0 0 0 0 0 0 0 0 0 0 0 0 0 0 0 0 0 0 0 0 0 0
0 0 0 0 0 0 0 0 0 0 0 0 0 0 0 0 0 0 0 0 0 0 0 0 0 0 0 0 0 0 0 0 0 0 0 0 0 0
0 0 0 0 0 0 0 0 0 0 0 0 0 0 0 0 0 0 0 0 0 0 0 0 0 0 0 0 0 0 0 0 0 0 0 0 0 0
0 0 0 0 0 0 0 0 0 0 0 0 0 0 0 0 0 0 0 0 0 0 0 0 0 0 0 0 0 0 0 0 0 0 0 0 0 0
0 0 0 0 0 0 0 0 0 0 0 0 0 0 0 0 0 0 0 0 0 0 0 0 0 0 0 0 0 0 0 0 0 0 0 0 0 0
0 0 0 0 0 0 0 0 0 0 0 0 0 0 0 0 0 0 0 0 0 0 0 0 0 0 0 0 0 0 0 0 0 0 0 0 0 0
0 0 0 0 0 0 0 0 0 0 0 0 0 0 0 0 0 0 0 0 0 0 0 0 0 0 0 0 0 0 0 0 0 0 0 0 0 0
0 0 0 0 0 0 0 0 0 0 0 0 0 0 0 0 0 0 0 0 0 0 0 0 0 0 0 0 0 0 0 0 0 0 0 0 0 0
CIN
-32 -35 -38 -53 -56 -72 -88 -95 -45 -30 -30 -1 0 0 0 -143 -82 -107 -107 -81 0 0 0 -54 0 0 0 0 0 0 0 -1 -1 -1 0 0 0 0
-55 -38 -34 -40 -43 -50 -49 -63 -86 -58 -27 0 0 0 0 -58 -63 -111 -112 0 0 0 0 0 -35 0 -3 -7 0 0 0 0 0 0 0 0 0 0
-41 -49 -33 -42 -35 -44 -47 -51 -41 -66 -27 -59 -116 0 0 -99 -131 0 0 0 0 0 0 0 0 0 0 0 -3 0 0 0 0 0 0 0 0 0
-29 -35 -35 -35 -31 -41 -44 -35 -39 -51 -35 -26 -87 -69 0 -113 -7 0 0 0 0 0 0 0 0 0 0 0 0 0 0 0 0 0 0 0 0 0
-32 -35 -33 -43 -37 -39 -38 -42 -52 -53 -71 -56 -54 -99 -91 -37 0 0 0 0 0 0 0 0 0 0 0 0 0 0 0 0 0 -3 0 -67 -60 -56
-35 -36 -33 -37 -42 -49 -41 -50 -53 -55 -92 -84 -71 -65 -86 -105 -125 0 0 0 0 0 0 0 0 0 0 0 0 0 0 0 0 0 0 0 0 0
-39 -37 -44 -63 -68 -62 -41 -40 -42 -57 -68 -58 -72 -85 -71 -78 -80 -115 0 0 0 0 0 0 0 0 0 0 0 0 0 0 0 0 0 0 0 0
-61 -46 -63 -100 -87 -121 -155 -137 -139 -92 -99 -107 -88 -92 -130 -118 -96 -99 0 0 -2 0 0 0 0 0 0 0 0 0 0 0 0 0 0 0 0 0
-102 -63 -45 -94 -90 -86 -77 0 0 0 0 -112 -63 -95 -103 0 -28 -85 -139 0 0 0 0 0 0 0 0 0 0 0 0 0 0 0 0 0 0 0
0 -16 -147 -162 -93 -146 0 0 0 0 0 0 0 0 0 0 0 -30 -84 -1 0 0 0 0 0 0 0 0 0 0 0 0 0 0 0 0 0 0
0 0 0 0 0 0 0 0 0 0 0 0 0 0 0 0 0 0 -36 0 0 0 0 0 0 0 0 0 0 0 0 0 0 0 0 0 0 0
0 0 0 0 0 0 0 0 0 0 0 0 0 0 0 0 0 0 0 0 0 0 0 0 0 0 0 0 0 0 0 0 0 0 0 0 0 0
0 0 0 0 0 0 0 0 0 0 0 0 0 0 0 0 0 0 0 0 0 0 0 0 0 0 0 0 0 0 0 0 0 0 0 0 0 0
0 0 0 0 0 0 0 0 0 0 0 0 0 0 0 0 0 0 0 0 0 0 0 0 0 0 0 0 0 0 0 0 0 0 0 0 0 0
0 0 0 0 0 0 0 0 0 0 0 0 0 0 0 0 0 0 0 0 0 0 0 0 0 0 0 0 0 0 0 0 0 0 0 0 0 0
0 0 0 0 0 0 0 0 0 0 0 0 0 0 0 0 0 0 0 0 0 0 0 0 0 0 0 0 0 0 0 0 0 0 0 0 0 0
0 0 0 0 0 0 0 0 0 0 0 0 0 0 0 0 0 0 0 0 0 0 0 0 0 0 0 0 0 0 0 0 0 0 0 0 0 0
0 0 0 0 0 0 0 0 0 0 0 0 0 0 0 0 0 0 0 0 0 0 0 0 0 0 0 0 0 0 0 0 0 0 0 0 0 0
0 0 0 0 0 0 0 0 0 0 0 0 0 0 0 0 0 0 0 0 0 0 0 0 0 0 0 0 0 0 0 0 0 0 0 0 0 0
0 0 0 0 0 0 0 0 0 0 0 0 0 0 0 0 0 0 0 0 0 0 0 0 0 0 0 0 0 0 0 0 0 0 0 0 0 0
0 0 0 0 0 0 0 0 0 0 0 0 0 0 0 0 0 0 0 0 0 0 0 0 0 0 0 0 0 0 0 0 0 0 0 0 0 0
0 0 0 0 0 0 0 0 0 0 0 0 0 0 0 0 0 0 0 0 0 0 0 0 0 0 0 0 0 0 0 0 0 0 0 0 0 0
0 0 0 0 0 0 0 0 0 0 0 0 0 0 0 0 0 0 0 0 0 0 0 0 0 0 0 0 0 0 0 0 0 0 0 0 0 0
Wind_Speed
20 19 19 18 12 10 11 11 11 9 11 12 12 13 14 14 15 16 16 16 16 15 15 16 16 16 18 19 19 16 12 11 9 9 10 10 10 11
20 22 22 20 18 10 12 14 10 11 10 11 12 12 13 13 15 15 14 15 14 14 14 14 15 16 17 16 16 16 15 10 9 9 10 11 12 13
23 23 23 21 22 15 15 15 17 15 11 16 16 15 15 14 14 14 15 14 15 16 14 16 18 17 17 19 11 12 9 7 8 9 10 10 11 12
25 24 25 21 21 14 15 16 16 16 15 17 15 15 15 12 12 14 14 15 15 17 16 17 16 15 15 5 14 11 6 5 7 8 9 9 11 12
24 24 24 24 22 17 12 15 17 17 17 18 18 16 15 11 13 14 15 16 15 16 16 17 18 18 18 18 18 11 3 3 3 4 5 7 11 14
27 25 23 23 24 14 14 16 16 17 19 19 19 16 15 14 13 12 12 14 14 15 16 16 18 18 19 19 20 19 15 10 10 10 12 13 14 13
26 22 18 20 23 15 15 14 12 16 18 21 18 16 15 15 15 15 14 14 15 15 14 16 18 18 19 19 20 19 17 15 14 14 13 13 13 13
23 18 16 17 18 19 21 21 20 19 21 23 22 18 18 18 17 15 16 16 18 15 15 17 17 18 19 19 20 19 18 17 15 14 13 13 12 13
18 14 15 19 18 19 18 20 21 21 20 19 21 21 20 20 20 17 15 15 16 17 15 16 17 17 17 19 20 20 20 19 17 15 14 13 12 12
20 19 17 18 19 18 18 17 18 20 19 18 18 19 21 21 18 20 20 16 18 18 19 19 18 19 18 18 20 20 21 20 20 18 15 14 13 13
20 21 20 20 23 16 16 15 16 16 18 16 18 19 21 22 21 18 19 17 20 20 22 21 20 19 20 20 19 20 21 21 20 21 20 18 17 15
22 23 23 22 19 15 14 13 14 14 16 17 19 21 22 23 23 21 20 20 21 22 22 22 22 20 22 20 19 19 19 21 20 22 20 19 20 21
19 20 21 20 19 16 15 12 15 12 16 17 19 21 23 23 23 23 22 20 21 22 21 18 19 18 20 20 18 19 18 19 17 18 22 23 23 21
15 16 16 17 17 16 14 11 11 13 15 16 18 19 20 20 20 21 21 21 21 20 21 19 21 20 19 19 20 16 16 18 17 22 23 22 26 22
13 14 14 15 15 14 13 12 12 13 14 15 16 17 17 18 19 20 20 20 21 22 22 22 20 20 21 22 20 17 19 20 20 22 24 24 25 24
13 13 13 14 14 13 13 14 14 14 14 14 15 16 16 17 19 20 20 21 22 23 25 24 22 20 20 20 19 17 17 21 21 22 23 24 23 21
13 13 14 14 14 14 15 15 15 15 15 16 16 16 17 17 19 19 20 21 22 22 23 23 24 22 21 19 20 20 21 22 25 26 25 25 24 23
14 14 14 15 15 15 15 15 15 16 16 15 16 17 17 18 18 18 19 21 22 23 22 22 22 21 20 22 22 21 22 24 25 25 25 25 24 24
14 14 14 15 15 16 16 16 15 15 15 15 16 16 17 17 17 17 19 20 21 22 24 24 24 22 22 23 22 24 23 25 25 25 24 24 24 25
14 14 14 16 16 15 15 15 15 15 15 16 16 16 17 17 17 18 19 20 21 23 23 24 24 24 22 22 21 22 23 25 26 26 26 24 23 23
14 14 14 14 15 13 13 13 13 15 16 17 17 17 17 17 18 18 19 21 21 21 22 23 22 21 21 20 22 23 23 25 25 26 27 27 27 25
13 14 13 13 13 12 12 12 13 14 15 17 17 17 17 17 18 19 20 20 21 20 21 21 21 20 21 23 24 25 26 26 26 26 24 25 26 27
13 13 13 13 12 11 11 12 13 13 14 16 16 16 16 17 18 18 18 19 19 20 20 21 22 22 22 23 25 27 27 28 27 28 28 24 26 24
Wind_Direction
305 306 283 274 189 153 162 167 125 183 164 134 156 144 140 163 112 124 102 114 136 155 159 136 165 167 157 147 135 115 287 304 12 12 2 358 0 358
311 287 296 311 250 124 61 43 95 101 142 90 92 119 86 90 92 94 93 94 142 174 179 171 151 184 192 150 146 138 127 348 3 14 6 353 344 338
290 289 276 300 281 9 17 22 12 25 38 17 9 24 14 44 40 37 40 51 28 347 330 308 280 235 211 215 156 135 105 54 14 359 355 352 350 347
262 282 272 306 317 360 1 4 8 14 20 358 12 12 3 25 26 18 10 4 20 2 357 352 6 3 355 41 182 159 97 77 18 3 358 354 349 345
294 290 290 293 307 337 8 351 348 353 351 337 342 354 359 33 6 359 354 341 357 357 354 350 356 350 342 335 330 351 89 52 43 23 9 354 343 336
282 292 306 304 301 340 340 337 342 346 341 334 332 342 347 354 355 -0 1 349 355 352 347 353 352 351 348 344 334 334 345 346 341 338 335 336 338 342
293 302 315 317 307 333 339 345 4 349 344 318 333 342 346 349 346 348 346 343 344 349 346 348 350 347 347 345 339 342 352 351 346 345 346 347 349 350
301 308 318 327 331 321 316 316 330 334 330 296 313 332 337 335 340 348 340 335 327 337 333 331 338 340 340 344 344 348 356 356 357 358 356 352 351 350
314 331 328 319 331 329 319 317 326 330 325 321 321 325 331 327 325 334 341 338 334 333 332 328 328 332 338 336 335 340 343 342 346 350 351 349 347 349
313 319 327 329 326 327 325 331 335 329 331 337 338 333 329 326 330 324 326 335 332 331 325 324 324 323 329 331 335 337 339 343 344 340 350 347 347 347
315 317 320 323 319 329 327 322 332 340 342 350 348 348 342 338 335 330 327 330 325 326 324 321 321 320 320 321 324 330 332 334 339 341 332 337 331 334
310 312 314 313 321 328 329 330 327 338 339 340 340 339 339 341 342 340 331 326 325 324 330 324 323 322 320 322 324 324 321 321 329 328 329 332 329 325
311 313 313 311 311 315 322 335 325 346 342 337 337 337 336 336 338 339 342 339 332 331 337 342 339 337 330 328 332 326 324 329 333 339 331 329 324 328
321 328 328 326 332 328 326 339 338 337 338 340 340 342 349 344 356 357 359 358 358 353 345 347 336 335 333 336 332 335 332 334 336 332 334 332 326 330
329 327 334 339 347 352 355 352 349 352 352 348 346 354 356 356 356 360 6 9 6 359 350 351 349 344 335 328 327 326 327 329 335 334 332 332 328 329
1 359 2 2 1 0 1 0 359 0 1 1 359 358 359 359 356 353 356 357 355 355 355 355 352 349 344 341 342 339 341 335 338 338 339 340 342 342
3 359 359 3 4 4 1 360 357 358 358 358 -0 0 359 0 355 359 1 0 358 355 356 0 4 7 5 0 353 349 344 341 339 337 337 337 342 347
358 351 351 349 352 354 357 358 2 2 3 5 4 2 360 2 1 2 4 1 360 359 359 358 359 2 4 4 2 353 350 346 344 341 341 338 337 341
355 351 354 352 349 350 351 354 357 2 6 8 4 3 6 6 6 7 6 5 2 360 358 357 355 350 346 342 355 359 353 350 347 345 345 342 339 339
356 356 355 354 352 354 355 356 2 7 5 5 6 8 8 8 8 5 3 1 359 358 358 359 359 357 353 350 350 354 358 352 350 348 345 343 341 341
347 347 351 355 357 2 5 8 8 4 1 0 360 1 2 4 5 3 2 360 359 359 357 357 359 0 0 359 354 351 350 352 350 347 344 340 338 338
351 349 351 357 359 2 6 4 360 359 360 358 358 1 0 360 359 358 358 358 359 359 357 358 358 358 357 355 350 346 344 344 345 345 346 346 343 337
352 353 353 355 360 4 3 359 358 360 357 354 355 357 357 356 359 2 3 5 4 0 359 359 358 357 355 352 349 346 343 342 341 340 341 344 344 342